Regional Weather Roundup
Issued by NWS

Home | Current Version | Previous Version | Graphics & Text | Print | Product List | Glossary On
Versions: 1 2 3 4 5 6 7 8 9 10 11 12 13 14 15 16 17 18 19 20 21 22 23 24 25 26 27 28 29 30 31 32 33 34 35 36 37 38 39 40 41 42 43 44 45 46 47 48 49 50
000
ASUS43 KIND 271659
RWRIN

WEATHER ROUNDUP FOR INDIANA
NATIONAL WEATHER SERVICE INDIANAPOLIS IN
100 PM EDT MON JUL 27 2015

NOTE: "FAIR" INDICATES FEW OR NO CLOUDS BELOW 12,000 FEET WITH NO
SIGNIFICANT WEATHER AND/OR OBSTRUCTIONS TO VISIBILITY.

* - STATION DOES NOT REPORT WEATHER SUCH AS PRECIPITATION OR FOG.

+ - STATION NOT QUALITY CONTROLLED BY THE NATIONAL WEATHER SERVICE.
    USE DATA WITH CAUTION...ESPECIALLY DEWPOINT AND RELATIVE
    HUMIDITY OBSERVATIONS.

INZ001>003-010>013-019-020-271800-
NORTHWEST INDIANA

CITY           SKY/WX    TMP DP  RH WIND       PRES   REMARKS
GARY /AIRPORT/ MOSUNNY   84  59  42 SE14G28   30.03S
KNOX *+        SUNNY     81  61  50 SE10      30.02S
MONTICELLO +   CLOUDY    81  73  76 E7        30.00S

$$

LMZ046-743>745-271800-
SOUTHERN LAKE MICHIGAN

STATION/POSITION TIME  TEMP    WIND        PRES    WAVE
                       AIR SEA DIR/SP/G            HT
                 (UTC) (F)     (DEG/KT/KT) (MB)    (FT)
BURNS HARBOR     1600   82     110/ 14/ 18 1016.9S
MICHIGAN CITY    1600   80      80/ 10/ 13   N/A
5NW MICH CITY    1600   77 74  100/  6/ 10   N/A     1

$$

INZ004-005-014>016-021>024-271800-
NORTH CENTRAL INDIANA

CITY           SKY/WX    TMP DP  RH WIND       PRES   REMARKS
ELKHART        SUNNY     84  59  42 E7        30.05S
GOSHEN         SUNNY     83  63  50 E12       30.04F
SOUTH BEND     SUNNY     85  61  44 E13       30.04F
WARSAW +       SUNNY     81  63  54 E9        30.04F

$$

INZ006>009-017-018-025>027-271800-
NORTHEAST INDIANA

CITY           SKY/WX    TMP DP  RH WIND       PRES   REMARKS
ANGOLA *+      SUNNY     82  77  83 E7        30.05F
FORT WAYNE     MOSUNNY   82  63  52 E10       30.04F

$$

INZ028-029-035-036-043>045-051>053-271800-
WEST CENTRAL INDIANA

CITY           SKY/WX    TMP DP  RH WIND       PRES   REMARKS
CRAWFORDSVL +  CLOUDY    77  69  78 CALM        N/A
GREENCASTLE +  CLOUDY    77  68  73 E5        30.01S
LAFAYETTE      CLOUDY    79  72  79 SE7       29.99F
TERRE HAUTE    CLOUDY    84  74  71 CALM      29.98S

$$

INZ030>032-037>040-046>048-054>057-064-065-271800-
CENTRAL INDIANA

CITY           SKY/WX    TMP DP  RH WIND       PRES   REMARKS
ANDERSON       PTSUNNY   81  66  61 E6        30.03S
GREENWOOD *+   PTSUNNY   81  70  69 E3        30.01F
INDIANAPOLIS   PTSUNNY   81  71  71 SE6       29.99F
-EAGLE CREEK   CLOUDY    81  70  69 VRB3      30.00S
KOKOMO *+      CLOUDY    79  72  78 E9        30.01S
MT COMFORT *+  MOSUNNY   82  79  89 SE7       30.01F
SHELBYVILLE    PTSUNNY   84  73  69 VRB3      29.99F

$$

INZ033-034-041-042-049-050-058-059-271800-
EAST CENTRAL INDIANA

CITY           SKY/WX    TMP DP  RH WIND       PRES   REMARKS
MUNCIE         CLOUDY    79  71  76 E8        30.02F

$$

INZ060-061-067>069-081>083-085>088-271800-
SOUTHWEST INDIANA

CITY           SKY/WX    TMP DP  RH WIND       PRES   REMARKS
EVANSVILLE     PTSUNNY   84  74  71 CALM      29.99S
HUNTINGBURG *+ CLOUDY    82  73  74 W6        29.99S

$$

INZ062-063-066-070>080-084-089>092-271800-
SOUTH CENTRAL AND SOUTHEAST INDIANA

CITY           SKY/WX    TMP DP  RH WIND       PRES   REMARKS
BLOOMINGTON    PTSUNNY   84  74  71 VRB3      29.99S
MADISON *+     PTSUNNY   82  72  69 CALM      30.02F
SEYMOUR +      PTSUNNY   84  73  70 CALM      29.99F

$$



USA.gov is the U.S. government's official web portal to all federal, state and local government web resources and services.